Location: Asheville, NC
(35.6000°N, 82.5500°W)
Time: 19:44:29
(UTC-04:00)

Vanguard 2 - Pass Details

Date: 16 March 2018
Orbit: 553 x 2939 km, 32.9° (Epoch: 23 June)

Event Time Altitude Azimuth Distance (km) Brightness Sun altitude
Rises 14:59:28 0° 276° (W) 6,270 12.4 48.4°
Reaches altitude 10° 15:03:18 10° 275° (W) 5,451 12.2 48.0°
Maximum altitude 15:20:42 75° 195° (SSW) 2,998 11.8 45.9°
Drops below altitude 10° 15:36:57 10° 113° (ESE) 5,137 11.7 43.8°
Sets 15:40:26 0° 112° (ESE) 5,908 11.9 43.3°
